User: anonymous   Login
Location: Unspecified
(0.0000°N, 0.0000°E)
Time: 05:10:07
(UTC+01:00)
Language:

Iridium 75 - Orbit

View from above orbital plane
View from above orbital plane
View from above satellite
View from above satellite

Ground track
Ground track

The orbit data is extracted from the following two-line orbital elements,

1 25346U 98032E   14331.48856632  .00000566  00000-0  19499-3 0   832
2 25346 086.3981 253.9198 0002112 099.2151 018.8970 14.34221825865988
Epoch (UTC): 27 November 2014 11:43:32
Eccentricity: 0.0002112
inclination: 86.3981°
perigee height: 776 km
apogee height: 779 km
right ascension of ascending node: 253.9198°
argument of perigee: 99.2151°
revolutions per day: 14.34221825
mean anomaly at epoch: 18.8970°
orbit number at epoch: 86598

The dashed part of the orbit path shows where the satellite is in the earth's shadow,  

DLR